Regional Weather Roundup
Issued by NWS Newport/Morehead, NC

Current Version | Previous Version | Graphics & Text | Print | Product List | Glossary On
Versions: 1 2 3 4 5 6 7 8 9 10 11 12 13 14 15 16 17 18 19 20 21 22 23 24 25 26 27 28 29 30 31 32 33 34 35 36 37 38 39 40 41 42 43 44 45 46 47 48 49 50
000 ASUS42 KMHX 282122 RWRMHX WEATHER ROUNDUP FOR EASTERN NORTH CAROLINA NATIONAL WEATHER SERVICE NEWPORT/MOREHEAD CITY NC 400 PM EST FRI NOV 28 2014 NOTE: "FAIR" INDICATES FEW OR NO CLOUDS BELOW 12,000 FEET WITH NO SIGNIFICANT WEATHER AND/OR OBSTRUCTIONS TO VISIBILITY NCZ015>017-031-032-045>047-102-103-282200- NORTH COAST CITY SKY/WX TMP DP RH WIND PRES REMARKS EDENTON CLEAR 42 24 49 NW5 30.30R ELIZABETH CITY CLEAR 45 22 40 NW7 30.29R KITTY HAWK CLEAR 41 23 48 NW6 30.27R MANTEO PTCLDY 41 24 51 N3 30.29R $$ NCZ045>047-081-094-103-104-282200- CENTRAL COAST CITY SKY/WX TMP DP RH WIND PRES REMARKS FRISCO CLEAR 42 26 53 VRB6 30.28R SWANQUARTER N/A 45 N/A N/A NW3 30.24S $$ NCZ095-097-098-100-101-282200- SOUTHERN COAST CITY SKY/WX TMP DP RH WIND PRES REMARKS BEAUFORT CLEAR 45 25 45 N8 30.29S CEDAR ISLAND N/A 43 N/A N/A NW12 30.33S JACKSONVILLE CLEAR 45 22 40 NW8 30.30R PINEY ISLAND CLEAR 46 24 42 NW9 30.28S WILMINGTON SUNNY 47 22 37 NW6 30.31R $$ NCZ011>013-027>030-043-044-078>080-089-090>093-098-282200- COASTAL PLAIN CITY SKY/WX TMP DP RH WIND PRES REMARKS AHOSKIE CLEAR 41 20 42 NW3 30.31R CLINTON SUNNY 45 24 42 NW5 30.32S ELIZABETHTOWN SUNNY 46 20 35 NW5 30.30F GOLDSBORO CLEAR 45 22 39 W8 30.29R GREENVILLE CLEAR 45 21 39 CALM 30.31R HAVELOCK CLEAR 46 22 38 N9 30.30S KENANSVILLE CLEAR 44 20 39 W3 30.32S KINSTON CLEAR 45 19 36 W5 30.32R NEW BERN CLEAR 46 22 38 NW5 30.30R RICHLANDS CLEAR 45 21 39 NW5 30.31R ROCKY MOUNT CLEAR 44 18 35 NW8 30.31R WASHINGTON CLEAR 43 22 43 NW7 30.30S WHITEVILLE SUNNY 46 21 37 CALM 30.31R $$ AMZ130-135-150-152-154-156-158-170-250-252-270-ANZ085-086-088-633-658-670-282200- MARINE OBSERVATIONS STATION/POSITION TIME TEMP WIND PRES WAVE SWELL AIR SEA DIR/SP/G HT/PER HT/PER (UTC) (F) (DEG/KT/KT) (MB) (FT/S) (FT/S) CHESAPEAKE LIGHT 2100 41 330/ 13/ 15 1025.8 64 E VA BEACH 2100 44 64 340/ 16/ 21 1023.7 6/ 7 3/14 DUCK 2100 42 52 350/ 11/ 15 1024.5 2 E DUCK 2100 54 N/A 4/ 7 2/11 10 NE DUCK 2100 56 N/A 5/ 8 2/11 OREGON INLET 2100 42 51 310/ 7/ 10 1025.2 13E OREGON INLT 2100 59 N/A 6/ 7 2/11 HATTERAS CG 2100 43 53 330/ 13/ 17 1025.5 DIAMOND BUOY 2100 45 330/ 16/ 21 1024.9 5/ 7 3/ 8 17 S OCRACOKE NOT AVBL CAPE LOOKOUT 2100 44 360/ 8/ 10 1025.2 BEAUFORT LAB 2100 44 54 340/ 5/ 11 1024.5 30 SE NEW RIVER 2100 45 66 350/ 10/ 16 1026.0 3/ 6 3/ 6 5 SE WRIGHTSVLE 2100 46 58 340/ 6/ 6 1025.9 225 S CAPE HAT 2006 59 72 340/ 16/ 21 1022.0 9/ 8 7/ 8 41 SE CHARLESTON 2100 47 72 360/ 10/ 16 1026.0 5/ 7 5/ 7 $$

USA.gov is the U.S. government's official web portal to all federal, state and local government web resources and services.